| time (UTC) | temp C | wind direction | speed KPH | gust KPH | rain 1hr cm | rain 24hr cm | rain mn cm | humidity % | barometer mb |
| 20260510070304 | 5 | 299 | 4.8 | 12.9 | 0.00 | 0.00 | 0.00 | 74 | 1001.9 |
| 20260510060805 | 5 | 278 | 4.8 | 11.3 | 0.00 | 0.00 | 0.00 | 72 | 1001.9 |
| 20260510060305 | 5 | 129 | 4.8 | 11.3 | 0.00 | 0.00 | 0.00 | 72 | 1001.8 |
| 20260510050804 | 6 | 129 | 1.6 | 8.0 | 0.00 | 0.00 | 0.00 | 66 | 1001.3 |
| 20260510040804 | 8 | 26 | 3.2 | 4.8 | 0.00 | 0.00 | 0.00 | 60 | 1001.3 |
| 20260510040305 | 9 | 58 | 4.8 | 12.9 | 0.00 | 0.00 | 0.00 | 60 | 1001.4 |
| 20260510030304 | 10 | 325 | 9.7 | 14.5 | 0.00 | 0.00 | 0.00 | 58 | 1001.4 |
| 20260510020304 | 10 | 292 | 8.0 | 14.5 | 0.00 | 0.00 | 0.00 | 56 | 1001.6 |
| 20260510010804 | 10 | 297 | 6.4 | 11.3 | 0.00 | 0.00 | 0.00 | 54 | 1001.7 |
| 20260510010305 | 11 | 287 | 4.8 | 14.5 | 0.00 | 0.00 | 0.00 | 55 | 1001.7 |
| 20260510000804 | 11 | 359 | 1.6 | 9.7 | 0.00 | 0.00 | 0.00 | 55 | 1001.4 |
| 20260509230804 | 11 | 320 | 3.2 | 9.7 | 0.00 | 0.00 | 0.00 | 53 | 1001.3 |
| 20260509230305 | 11 | 315 | 3.2 | 12.9 | 0.00 | 0.00 | 0.00 | 53 | 1001.3 |
| 20260509220804 | 11 | 145 | 1.6 | 4.8 | 0.00 | 0.00 | 0.00 | 58 | 1001.5 |
| 20260509220305 | 11 | 12 | 3.2 | 14.5 | 0.00 | 0.00 | 0.00 | 58 | 1001.5 |
| 20260509210304 | 12 | 34 | 3.2 | 14.5 | 0.00 | 0.00 | 0.00 | 57 | 1001.3 |
| 20260509200804 | 11 | 356 | 4.8 | 14.5 | 0.00 | 0.00 | 0.00 | 61 | 1001.3 |
| 20260509190805 | 11 | 65 | 3.2 | 14.5 | 0.00 | 0.00 | 0.00 | 63 | 1000.6 |
| 20260509180304 | 10 | 281 | 6.4 | 12.9 | 0.00 | 0.00 | 0.00 | 69 | 1001.1 |
| 20260509160739 | 6 | 288 | 8.0 | 11.3 | 0.00 | 0.00 | 0.00 | 81 | 1001.1 |
| 20260509160239 | 6 | 27 | 4.8 | 12.9 | 0.00 | 0.00 | 0.00 | 81 | 1001.1 |
| 20260509150740 | 5 | 280 | 4.8 | 12.9 | 0.00 | 0.00 | 0.00 | 82 | 1001.1 |
| 20260509140740 | 5 | 114 | 4.8 | 12.9 | 0.00 | 0.00 | 0.00 | 84 | 1001.6 |
| 20260509130739 | 5 | 78 | 4.8 | 11.3 | 0.00 | 0.00 | 0.00 | 84 | 1001.8 |
| 20260509130240 | 5 | 289 | 4.8 | 14.5 | 0.00 | 0.00 | 0.00 | 84 | 1001.8 |
| 20260509120740 | 5 | 306 | 8.0 | 14.5 | 0.00 | 0.00 | 0.00 | 81 | 1001.9 |
| 20260509120240 | 5 | 294 | 9.7 | 14.5 | 0.00 | 0.00 | 0.00 | 81 | 1001.9 |
| 20260509110740 | 5 | 279 | 9.7 | 11.3 | 0.00 | 0.00 | 0.00 | 79 | 1002.5 |
| 20260509100740 | 5 | 274 | 9.7 | 14.5 | 0.00 | 0.00 | 0.00 | 80 | 1002.7 |
| 20260509100239 | 5 | 288 | 11.3 | 14.5 | 0.00 | 0.00 | 0.00 | 80 | 1002.7 |
| 20260509090739 | 5 | 284 | 9.7 | 12.9 | 0.00 | 0.00 | 0.00 | 81 | 1003.1 |
| 20260509090239 | 5 | 289 | 8.0 | 12.9 | 0.00 | 0.00 | 0.00 | 81 | 1003.0 |
| 20260509080739 | 5 | 136 | 8.0 | 12.9 | 0.00 | 0.00 | 0.00 | 81 | 1003.3 |
| 20260509080241 | 5 | 192 | 8.0 | 14.5 | 0.00 | 0.00 | 0.00 | 81 | 1003.3 |